This is the latest recevied weather packets stored in our database for station/object K8JMX-13. If no packets are shown the sender has not sent any weather packets the latest 1 day(s).
| Time | Temp. | Humidity | Pressure | Rain* | Wind** | Luminosity | Snow |
|---|---|---|---|---|---|---|---|
| 1778099387 | 14.44° C | 48% | 1011.2 hPa | 0 mm | - | 320 W/m² | - |
| 1778098780 | 14.44° C | 49% | 1011.2 hPa | 0 mm | - | 259 W/m² | - |
| 1778097871 | 13.89° C | 49% | 1011.1 hPa | 0 mm | - | 163 W/m² | - |
| 1778096052 | 15° C | 50% | 1011 hPa | 0 mm | - | 166 W/m² | - |
| 1778094232 | 16.11° C | 45% | 1010.8 hPa | 0 mm | - | 319 W/m² | - |
| 1778093626 | 15.56° C | 45% | 1010.9 hPa | 0 mm | - | 427 W/m² | - |
| 1778093323 | 16.11° C | 45% | 1010.9 hPa | 0 mm | - | 514 W/m² | - |
| 1778093020 | 15.56° C | 45% | 1011 hPa | 0 mm | - | 612 W/m² | - |
| 1778092110 | 15.56° C | 48% | 1011.1 hPa | 0 mm | - | 344 W/m² | - |
| 1778091505 | 15.56° C | 46% | 1011.1 hPa | 0 mm | - | 470 W/m² | - |
| 1778090292 | 15° C | 46% | 1011 hPa | 0 mm | - | 513 W/m² | - |
| 1778089989 | 15.56° C | 48% | 1010.9 hPa | 0 mm | - | 395 W/m² | - |
| 1778089081 | 15° C | 48% | 1011.2 hPa | 0 mm | - | 519 W/m² | - |
| 1778088171 | 15° C | 49% | 1011.1 hPa | 0 mm | - | 744 W/m² | - |
| 1778086052 | 13.89° C | 52% | 1011.1 hPa | 0 mm | - | 254 W/m² | - |
| 1778085749 | 14.44° C | 50% | 1011.1 hPa | 0 mm | - | 395 W/m² | - |
| 1778084534 | 13.33° C | 53% | 1011.1 hPa | 0 mm | - | 578 W/m² | - |
| 1778084231 | 13.33° C | 52% | 1011.4 hPa | 0 mm | - | 183 W/m² | - |
| 1778083929 | 12.78° C | 53% | 1011.4 hPa | 0 mm | - | 323 W/m² | - |
| 1778083021 | 12.78° C | 50% | 1011 hPa | 0 mm | - | 238 W/m² | - |
| 1778082718 | 12.78° C | 52% | 1010.9 hPa | 0 mm | - | 232 W/m² | - |
| 1778080974 | 11.67° C | 58% | 1010.9 hPa | 0 mm | - | 263 W/m² | - |
| 1778080369 | 11.67° C | 61% | 1010.6 hPa | 0 mm | - | 237 W/m² | - |
| 1778079763 | 11.67° C | 60% | 1010.3 hPa | 0 mm | - | 225 W/m² | - |
| 1778079156 | 11.11° C | 63% | 1010.3 hPa | 0 mm | - | 239 W/m² | - |
* Rain latest hour (hover to see other rain measurements)
** Current wind speed in m/s (hover to see current wind gust speed)